Time,TemperatureF,DewpointF,PressureIn,WindDirection,WindDirectionDegrees,WindSpeedMPH,WindSpeedGustMPH,Humidity,HourlyPrecipIn,Conditions,Clouds,dailyrainin,SolarRadiationWatts/m^2,SoftwareType,DateUTC
2013-04-24 00:12:00,52.0,47.0,-100.00,West,279,2.0,6.0,83,0.00,,,0.00,0.000000,,2013-04-24 04:12:00,
2013-04-24 00:23:00,52.0,47.0,-100.00,West,279,2.0,6.0,83,0.00,,,0.00,0.000000,,2013-04-24 04:23:00,
2013-04-24 00:33:00,52.0,47.0,-100.00,West,279,2.0,6.0,83,0.00,,,0.00,0.000000,,2013-04-24 04:33:00,
2013-04-24 00:43:00,52.0,47.0,-100.00,West,279,2.0,6.0,83,0.00,,,0.00,0.000000,,2013-04-24 04:43:00,
2013-04-24 00:52:00,52.0,49.0,-100.00,WNW,291,2.0,6.0,91,0.00,,,0.00,0.000000,,2013-04-24 04:52:00,
2013-04-24 01:22:00,52.0,49.0,-100.00,WNW,291,2.0,6.0,91,0.00,,,0.00,0.000000,,2013-04-24 05:22:00,
2013-04-24 01:32:00,52.0,49.0,-100.00,WNW,291,2.0,6.0,91,0.00,,,0.00,0.000000,,2013-04-24 05:32:00,
2013-04-24 01:42:00,52.0,49.0,-100.00,WNW,291,2.0,6.0,91,0.00,,,0.00,0.000000,,2013-04-24 05:42:00,
2013-04-24 02:12:00,50.0,49.0,-100.00,NNW,341,0.0,4.0,98,0.00,,,0.00,0.000000,,2013-04-24 06:12:00,
2013-04-24 02:22:00,50.0,49.0,-100.00,NNW,341,0.0,4.0,98,0.00,,,0.00,0.000000,,2013-04-24 06:22:00,
2013-04-24 02:33:00,50.0,49.0,-100.00,NNW,341,0.0,4.0,98,0.00,,,0.00,0.000000,,2013-04-24 06:33:00,
2013-04-24 02:42:00,50.0,49.0,-100.00,NNW,341,0.0,4.0,98,0.00,,,0.00,0.000000,,2013-04-24 06:42:00,
2013-04-24 02:51:00,50.0,49.0,-100.00,NNW,341,0.0,4.0,98,0.00,,,0.00,0.000000,,2013-04-24 06:51:00,
2013-04-24 02:52:00,49.0,48.0,-100.00,NNW,331,0.0,5.0,98,0.00,,,0.00,0.000000,,2013-04-24 06:52:00,
2013-04-24 03:11:00,49.0,48.0,-100.00,NNW,331,0.0,5.0,98,0.00,,,0.00,0.000000,,2013-04-24 07:11:00,
2013-04-24 03:22:00,49.0,48.0,-100.00,NNW,331,0.0,5.0,98,0.00,,,0.00,0.000000,,2013-04-24 07:22:00,
2013-04-24 03:32:00,49.0,48.0,-100.00,NNW,331,0.0,5.0,98,0.00,,,0.00,0.000000,,2013-04-24 07:32:00,
2013-04-24 03:42:00,49.0,48.0,-100.00,NNW,331,0.0,5.0,98,0.00,,,0.00,0.000000,,2013-04-24 07:42:00,
2013-04-24 03:52:00,49.0,48.0,-100.00,WNW,293,1.0,3.0,98,0.00,,,0.00,0.000000,,2013-04-24 07:52:00,
2013-04-24 04:12:00,49.0,48.0,-100.00,WNW,293,1.0,3.0,98,0.00,,,0.00,0.000000,,2013-04-24 08:12:00,
2013-04-24 04:21:00,49.0,48.0,-100.00,WNW,293,1.0,3.0,98,0.00,,,0.00,0.000000,,2013-04-24 08:21:00,
2013-04-24 04:33:00,49.0,48.0,-100.00,WNW,293,1.0,3.0,98,0.00,,,0.00,0.000000,,2013-04-24 08:33:00,
2013-04-24 04:42:00,49.0,48.0,-100.00,WNW,293,1.0,3.0,98,0.00,,,0.00,0.000000,,2013-04-24 08:42:00,
2013-04-24 04:52:00,48.0,48.0,-100.00,West,278,2.0,4.0,99,0.00,,,0.00,0.000000,,2013-04-24 08:52:00,
2013-04-24 05:12:00,48.0,48.0,-100.00,West,278,2.0,4.0,99,0.00,,,0.00,0.000000,,2013-04-24 09:12:00,
2013-04-24 05:21:00,48.0,48.0,-100.00,West,278,2.0,4.0,99,0.00,,,0.00,0.000000,,2013-04-24 09:21:00,
2013-04-24 05:33:00,48.0,48.0,-100.00,West,278,2.0,4.0,99,0.00,,,0.00,0.000000,,2013-04-24 09:33:00,
2013-04-24 05:42:00,48.0,48.0,-100.00,West,278,2.0,4.0,99,0.00,,,0.00,0.000000,,2013-04-24 09:42:00,
2013-04-24 05:52:00,46.0,46.0,-100.00,WNW,297,2.0,13.0,99,0.00,,,0.00,0.000000,,2013-04-24 09:52:00,
2013-04-24 06:12:00,46.0,46.0,-100.00,WNW,297,2.0,13.0,99,0.00,,,0.00,0.000000,,2013-04-24 10:12:00,
2013-04-24 06:23:00,46.0,46.0,-100.00,WNW,297,2.0,13.0,99,0.00,,,0.00,0.000000,,2013-04-24 10:23:00,
2013-04-24 06:33:00,46.0,46.0,-100.00,WNW,297,2.0,13.0,99,0.00,,,0.00,0.000000,,2013-04-24 10:33:00,
2013-04-24 06:42:00,46.0,46.0,-100.00,WNW,297,2.0,13.0,99,0.00,,,0.00,0.000000,,2013-04-24 10:42:00,
2013-04-24 06:52:00,47.0,47.0,-100.00,WNW,285,2.0,5.0,99,0.00,,,0.00,4.000000,,2013-04-24 10:52:00,
2013-04-24 07:22:00,47.0,47.0,-100.00,WNW,285,2.0,5.0,99,0.00,,,0.00,4.000000,,2013-04-24 11:22:00,
2013-04-24 07:32:00,47.0,47.0,-100.00,WNW,285,2.0,5.0,99,0.00,,,0.00,4.000000,,2013-04-24 11:32:00,
2013-04-24 07:42:00,47.0,47.0,-100.00,WNW,285,2.0,5.0,99,0.00,,,0.00,4.000000,,2013-04-24 11:42:00,
2013-04-24 07:52:00,51.0,51.0,-100.00,NNW,336,2.0,6.0,99,0.00,,,0.00,82.000000,,2013-04-24 11:52:00,
2013-04-24 08:22:00,51.0,51.0,-100.00,NNW,336,2.0,6.0,99,0.00,,,0.00,82.000000,,2013-04-24 12:22:00,
2013-04-24 08:32:00,51.0,51.0,-100.00,NNW,336,2.0,6.0,99,0.00,,,0.00,82.000000,,2013-04-24 12:32:00,
2013-04-24 08:42:00,51.0,51.0,-100.00,NNW,336,2.0,6.0,99,0.00,,,0.00,82.000000,,2013-04-24 12:42:00,
2013-04-24 08:52:00,58.0,54.0,-100.00,North,358,4.0,8.0,85,0.00,,,0.00,271.000000,,2013-04-24 12:52:00,
2013-04-24 09:12:00,58.0,54.0,-100.00,North,358,4.0,8.0,85,0.00,,,0.00,271.000000,,2013-04-24 13:12:00,
2013-04-24 09:22:00,58.0,54.0,-100.00,North,358,4.0,8.0,85,0.00,,,0.00,271.000000,,2013-04-24 13:22:00,
2013-04-24 09:32:00,58.0,54.0,-100.00,North,358,4.0,8.0,85,0.00,,,0.00,271.000000,,2013-04-24 13:32:00,
2013-04-24 09:41:00,58.0,54.0,-100.00,North,358,4.0,8.0,85,0.00,,,0.00,271.000000,,2013-04-24 13:41:00,
2013-04-24 10:11:00,65.0,55.0,-100.00,North,10,7.0,15.0,69,0.00,,,0.00,478.000000,,2013-04-24 14:11:00,
2013-04-24 10:22:00,65.0,55.0,-100.00,North,10,7.0,15.0,69,0.00,,,0.00,478.000000,,2013-04-24 14:22:00,
2013-04-24 10:32:00,65.0,55.0,-100.00,North,10,7.0,15.0,69,0.00,,,0.00,478.000000,,2013-04-24 14:32:00,
2013-04-24 10:42:00,65.0,55.0,-100.00,North,10,7.0,15.0,69,0.00,,,0.00,478.000000,,2013-04-24 14:42:00,
2013-04-24 10:51:00,65.0,55.0,-100.00,North,10,7.0,15.0,69,0.00,,,0.00,478.000000,,2013-04-24 14:51:00,
2013-04-24 10:52:00,69.0,54.0,-100.00,NNW,343,6.0,15.0,59,0.00,,,0.00,681.000000,,2013-04-24 14:52:00,
2013-04-24 11:11:00,69.0,54.0,-100.00,NNW,343,6.0,15.0,59,0.00,,,0.00,681.000000,,2013-04-24 15:11:00,
2013-04-24 11:22:00,69.0,54.0,-100.00,NNW,343,6.0,15.0,59,0.00,,,0.00,681.000000,,2013-04-24 15:22:00,
2013-04-24 11:33:00,69.0,54.0,-100.00,NNW,343,6.0,15.0,59,0.00,,,0.00,681.000000,,2013-04-24 15:33:00,
2013-04-24 11:43:00,69.0,54.0,-100.00,NNW,343,6.0,15.0,59,0.00,,,0.00,681.000000,,2013-04-24 15:43:00,
2013-04-24 11:52:00,72.0,54.0,-100.00,North,351,8.0,17.0,53,0.00,,,0.00,826.000000,,2013-04-24 15:52:00,
2013-04-24 12:12:00,72.0,54.0,-100.00,North,351,8.0,17.0,53,0.00,,,0.00,826.000000,,2013-04-24 16:12:00,
2013-04-24 12:23:00,72.0,54.0,-100.00,North,351,8.0,17.0,53,0.00,,,0.00,826.000000,,2013-04-24 16:23:00,
2013-04-24 12:32:00,72.0,54.0,-100.00,North,351,8.0,17.0,53,0.00,,,0.00,826.000000,,2013-04-24 16:32:00,
2013-04-24 12:42:00,72.0,54.0,-100.00,North,351,8.0,17.0,53,0.00,,,0.00,826.000000,,2013-04-24 16:42:00,
2013-04-24 14:52:00,-999.0,-99.9,-100.00,North,-999,8.0,-999.0,-999,-99.99,,,0.00,,,2013-04-24 18:52:00,
2013-04-24 15:22:00,-999.0,-99.9,-100.00,North,-999,8.0,-999.0,-999,-99.99,,,0.00,,,2013-04-24 19:22:00,
2013-04-24 15:32:00,-999.0,-99.9,-100.00,North,-999,8.0,-999.0,-999,-99.99,,,0.00,,,2013-04-24 19:32:00,
2013-04-24 15:42:00,-999.0,-99.9,-100.00,North,-999,8.0,-999.0,-999,-99.99,,,0.00,,,2013-04-24 19:42:00,
2013-04-24 15:52:00,77.0,51.0,-100.00,NNW,339,7.0,20.0,41,0.00,,,0.00,788.000000,,2013-04-24 19:52:00,
2013-04-24 16:11:00,77.0,51.0,-100.00,NNW,339,7.0,20.0,41,0.00,,,0.00,788.000000,,2013-04-24 20:11:00,
2013-04-24 16:22:00,77.0,51.0,-100.00,NNW,339,7.0,20.0,41,0.00,,,0.00,788.000000,,2013-04-24 20:22:00,
2013-04-24 16:32:00,77.0,51.0,-100.00,NNW,339,7.0,20.0,41,0.00,,,0.00,788.000000,,2013-04-24 20:32:00,
2013-04-24 16:42:00,77.0,51.0,-100.00,NNW,339,7.0,20.0,41,0.00,,,0.00,788.000000,,2013-04-24 20:42:00,
2013-04-24 16:52:00,78.0,52.0,-100.00,NNW,347,7.0,19.0,41,0.00,,,-99.99,546.000000,,2013-04-24 20:52:00,
2013-04-24 17:12:00,78.0,52.0,-100.00,NNW,347,7.0,19.0,41,0.00,,,-99.99,546.000000,,2013-04-24 21:12:00,
2013-04-24 17:22:00,78.0,52.0,-100.00,NNW,347,7.0,19.0,41,0.00,,,-99.99,546.000000,,2013-04-24 21:22:00,
2013-04-24 17:33:00,78.0,52.0,-100.00,NNW,347,7.0,19.0,41,0.00,,,-99.99,546.000000,,2013-04-24 21:33:00,
2013-04-24 17:42:00,78.0,52.0,-100.00,NNW,347,7.0,19.0,41,0.00,,,-99.99,546.000000,,2013-04-24 21:42:00,
2013-04-24 17:52:00,75.0,52.0,-100.00,NNW,341,4.0,17.0,45,0.00,,,-99.99,238.000000,,2013-04-24 21:52:00,
2013-04-24 18:12:00,75.0,52.0,-100.00,NNW,341,4.0,17.0,45,0.00,,,-99.99,238.000000,,2013-04-24 22:12:00,
2013-04-24 18:22:00,75.0,52.0,-100.00,NNW,341,4.0,17.0,45,0.00,,,-99.99,238.000000,,2013-04-24 22:22:00,
2013-04-24 18:33:00,75.0,52.0,-100.00,NNW,341,4.0,17.0,45,0.00,,,-99.99,238.000000,,2013-04-24 22:33:00,
2013-04-24 18:42:00,75.0,52.0,-100.00,NNW,341,4.0,17.0,45,0.00,,,-99.99,238.000000,,2013-04-24 22:42:00,
2013-04-24 19:12:00,73.0,51.0,-100.00,NNW,343,4.0,11.0,46,0.00,,,-99.99,162.000000,,2013-04-24 23:12:00,
2013-04-24 19:22:00,73.0,51.0,-100.00,NNW,343,4.0,11.0,46,0.00,,,-99.99,162.000000,,2013-04-24 23:22:00,
2013-04-24 19:32:00,73.0,51.0,-100.00,NNW,343,4.0,11.0,46,0.00,,,-99.99,162.000000,,2013-04-24 23:32:00,
2013-04-24 19:42:00,73.0,51.0,-100.00,NNW,343,4.0,11.0,46,0.00,,,-99.99,162.000000,,2013-04-24 23:42:00,
2013-04-24 19:51:00,73.0,51.0,-100.00,NNW,343,4.0,11.0,46,0.00,,,-99.99,162.000000,,2013-04-24 23:51:00,
2013-04-24 19:52:00,71.0,54.0,-100.00,NNW,337,2.0,8.0,54,0.00,,,0.00,58.000000,,2013-04-24 23:52:00,
2013-04-24 20:12:00,71.0,54.0,-100.00,NNW,337,2.0,8.0,54,0.00,,,0.00,58.000000,,2013-04-25 00:12:00,
2013-04-24 20:23:00,71.0,54.0,-100.00,NNW,337,2.0,8.0,54,0.00,,,0.00,58.000000,,2013-04-25 00:23:00,
2013-04-24 20:32:00,71.0,54.0,-100.00,NNW,337,2.0,8.0,54,0.00,,,0.00,58.000000,,2013-04-25 00:32:00,
2013-04-24 20:42:00,71.0,54.0,-100.00,NNW,337,2.0,8.0,54,0.00,,,0.00,58.000000,,2013-04-25 00:42:00,
2013-04-24 20:52:00,66.0,52.0,-100.00,North,4,3.0,5.0,60,0.00,,,-99.99,1.000000,,2013-04-25 00:52:00,
2013-04-24 21:23:00,66.0,52.0,-100.00,North,4,3.0,5.0,60,0.00,,,-99.99,1.000000,,2013-04-25 01:23:00,
2013-04-24 21:32:00,66.0,52.0,-100.00,North,4,3.0,5.0,60,0.00,,,-99.99,1.000000,,2013-04-25 01:32:00,
2013-04-24 21:42:00,66.0,52.0,-100.00,North,4,3.0,5.0,60,0.00,,,-99.99,1.000000,,2013-04-25 01:42:00,
2013-04-24 22:11:00,66.0,54.0,-100.00,NNW,347,2.0,-999.0,65,0.00,,,0.00,,,2013-04-25 02:11:00,
2013-04-24 22:22:00,66.0,54.0,-100.00,NNW,347,2.0,-999.0,65,0.00,,,0.00,,,2013-04-25 02:22:00,
2013-04-24 22:32:00,66.0,54.0,-100.00,NNW,347,2.0,-999.0,65,0.00,,,0.00,,,2013-04-25 02:32:00,
2013-04-24 22:42:00,66.0,54.0,-100.00,NNW,347,2.0,-999.0,65,0.00,,,0.00,,,2013-04-25 02:42:00,
2013-04-24 22:51:00,66.0,54.0,-100.00,NNW,347,2.0,-999.0,65,0.00,,,0.00,,,2013-04-25 02:51:00,